           , 2.000,  2.148,  2.295,  2.443,  2.591,  2.739,  2.886,  3.034,  3.182,  3.329,  3.477,  3.625,  3.773,  3.920,  4.068,  4.216,  4.363,  4.511,  4.659,  4.807,  4.954,  5.102,  5.250,  5.398,  5.545,  5.693,  5.841,  5.988,  6.136,  6.284,  6.432,  6.579,  6.727,  6.875,  7.022,  7.170,  7.318,  7.466,  7.613,  7.761,  7.909,  8.056,  8.204,  8.352,  8.500,  8.647,  8.795,  8.943,  9.091,  9.238,  9.386,  9.534,  9.681,  9.829,  9.977, 10.125, 10.272, 10.420, 10.568, 10.715, 10.863, 11.011, 11.159, 11.306, 11.454, 11.602, 11.750, 11.897, 12.045, 12.193, 12.340, 12.488, 12.636, 12.784, 12.931, 13.079, 13.227, 13.374, 13.522, 13.670, 13.818, 13.965, 14.113, 14.261, 14.409, 14.556, 14.704, 14.852, 14.999, 15.147, 15.295, 15.443, 15.590, 15.738, 15.886, 16.033, 16.181, 16.329, 16.477, 16.624, 16.772, 16.920, 17.067, 17.215, 17.363, 17.511, 17.658, 17.806, 17.954, 18.102, 18.249, 18.397, 18.545, 18.692, 18.840, 18.988, 19.136, 19.283, 19.431, 19.579
2018/12/26 00:05,  999.0,   11.2,   11.2,   14.5,   13.6,   14.1,   14.3,   14.5,   14.2,   13.6,   13.2,   13.1,   13.6,   14.2,   14.9,   17.1,   20.8,   23.9,   25.0,   24.1,   25.9,   29.8,   33.2,   34.5,   36.5,   39.6,   43.6,   42.4,   41.9,   41.8,   40.2,   39.7,   40.4,   41.0,   40.9,   40.6,   43.7,   45.3,   46.9,   47.6,   50.4,   49.8,   52.7,   53.2,   52.1,   53.6,   56.8,   58.8,   63.0,   63.4,   63.0,   66.4,   75.0,   77.8,   73.8,  999.0,   73.8,   76.4,  999.0,   75.4,   78.2,  999.0,  999.0,   78.1,  999.0,   76.8,  999.0,   73.3,   77.0,   76.2,   79.4,   71.5,   78.3,   69.9,  999.0,   71.2,   67.8,   69.5,   65.6,   62.8,   62.9,   63.1,   63.3,   69.9,  999.0,   68.2,   65.7,   71.9,   74.0,   64.0,   64.1,   64.8,   54.5,   59.8,   60.3,   58.0,   56.5,   54.7,   53.1,   47.7,   42.1,   46.0,   44.2,   49.0,   45.1,  999.0,  999.0,   40.5,  999.0,  999.0,   31.9,   36.5,   31.4,   33.6,   27.7,   26.5,   24.6,   24.9,  999.0,  999.0
2018/12/26 00:15,   12.9,   11.2,   11.8,   14.8,   14.2,   13.9,   14.0,   14.6,   13.7,   12.7,   12.8,   12.6,   13.3,   13.4,   14.6,   16.4,   19.6,   22.4,   23.2,   23.4,   26.4,   30.3,   33.6,   33.6,   35.4,   39.7,   43.7,   41.3,   41.0,   40.3,   39.1,   40.3,   40.2,   40.6,   39.9,   43.1,   43.5,   45.2,   47.1,   48.4,   48.9,   51.9,   51.8,   51.9,   51.7,   54.0,   57.2,   59.4,   62.5,   62.1,   60.5,   66.3,   74.8,   76.1,   74.1,  999.0,   72.3,   75.4,  999.0,   74.8,   78.8,   77.5,   75.9,  999.0,  999.0,   75.6,   77.1,   76.3,   74.1,   76.7,   74.3,   70.3,   74.3,   79.6,   75.0,   68.8,   71.4,   67.1,   72.2,   60.4,   62.9,   64.1,   64.0,   72.2,   72.0,  999.0,   65.7,   71.1,   74.2,   62.4,   64.3,   63.9,   53.8,   61.2,   60.4,   57.7,   56.1,   53.4,   50.6,   46.1,   44.9,   48.1,   46.3,   49.7,  999.0,  999.0,  999.0,   39.5,  999.0,  999.0,   34.9,   37.7,  999.0,   31.7,  999.0,   26.8,   23.7,   23.7,   23.0,  999.0
2018/12/26 00:25,   12.2,   11.8,   11.7,   14.8,   13.0,   13.9,   14.6,   14.3,   13.3,   13.0,   12.4,   12.6,   12.4,   13.0,   13.7,   16.2,   19.3,   21.3,   22.3,   23.2,   27.0,   30.8,   32.7,   33.6,   36.7,   41.1,   42.9,   41.5,   40.1,   39.3,   39.2,   40.0,   40.0,   39.4,   40.0,   42.8,   44.5,   45.2,   46.8,   47.5,   48.6,   51.9,   51.5,   51.8,   52.7,   54.1,   57.5,   60.2,   60.4,   63.0,   60.9,   65.5,   74.7,   76.2,   76.0,  999.0,  999.0,   75.7,  999.0,   75.8,   78.7,  999.0,   76.3,  999.0,  999.0,   76.2,  999.0,   72.7,   77.6,   75.1,   74.2,   73.5,   75.5,   76.1,   73.2,   71.1,   68.9,   69.7,   62.4,   60.8,   63.6,   64.3,   62.7,   69.4,   69.5,   72.2,   63.4,   69.3,   72.4,  999.0,   61.0,   62.7,   62.9,   57.6,   61.8,   60.2,   58.8,   54.2,   50.9,   46.2,   45.8,   47.3,   47.8,   46.7,   41.4,   44.7,  999.0,  999.0,   39.8,  999.0,  999.0,   34.1,  999.0,   30.6,   30.6,   25.4,   24.7,   22.2,   23.7,   23.9
2018/12/26 00:35,   12.8,   12.0,   11.9,   14.8,   14.6,   13.5,   14.2,   14.4,   13.2,   13.5,   14.1,   14.1,   14.3,   14.0,   15.0,   16.7,   20.2,   21.8,   23.1,   24.9,   28.3,   31.1,   32.9,   34.5,   39.5,   42.5,   42.0,   41.2,   39.7,   39.4,   39.4,   40.3,   39.8,   39.7,   39.0,   42.3,   43.7,   45.3,   46.8,   47.1,   49.2,   50.9,   52.6,   51.6,   53.2,   56.7,   58.1,   59.1,   61.5,   61.9,   61.3,   67.4,   75.0,   75.2,   77.8,  999.0,  999.0,   75.1,  999.0,   75.1,  999.0,  999.0,   76.3,   78.5,  999.0,   73.7,   76.3,   76.8,   79.9,   75.3,   74.4,   75.4,   77.9,   74.0,   75.0,   71.7,   67.0,   69.8,  999.0,   58.4,   60.4,   64.2,   61.6,   66.9,   74.6,  999.0,  999.0,   68.2,   70.2,   76.4,   63.3,  999.0,   64.3,   59.8,   61.2,   59.4,   58.2,   55.7,   51.4,   50.1,   46.0,   45.5,   46.8,   45.6,   40.3,   45.1,  999.0,  999.0,  999.0,  999.0,   36.4,   34.0,   29.4,   30.9,   31.4,  999.0,   23.2,   21.1,   23.0,   20.1
2018/12/26 00:45,   12.4,   12.3,   12.4,   14.9,   14.7,   14.3,   14.3,   14.3,   12.4,   12.3,   13.1,   12.8,   13.4,   14.1,   14.5,   17.0,   20.2,   21.8,   22.1,   24.2,   27.9,   30.8,   32.5,   34.1,   39.0,   42.9,   41.5,   40.3,   39.4,   39.5,   40.0,   40.2,   39.8,   38.7,   40.5,   41.4,   42.2,   44.6,   45.8,   47.3,   48.9,   51.6,   52.4,   51.7,   54.5,   57.8,   59.1,   59.0,   60.9,   60.2,   61.6,   66.7,   72.5,   77.3,   70.4,  999.0,  999.0,   74.1,   76.4,   71.5,  999.0,  999.0,   74.5,  999.0,  999.0,   75.9,   77.1,   76.7,  999.0,   74.7,   77.3,   75.9,  999.0,   72.5,   75.3,   70.3,   75.3,   66.3,   72.2,   58.2,   61.3,   63.4,   60.6,   64.3,   71.4,  999.0,   62.5,   68.4,   71.8,   74.1,   66.4,   58.8,   63.5,   57.9,   60.6,   53.9,   55.6,   54.8,   51.0,   49.8,   47.4,   45.5,   47.9,   42.5,   42.5,   45.2,  999.0,  999.0,   38.4,   37.3,   32.8,   33.2,   32.3,   31.5,   27.5,   23.9,   23.9,   23.6,   23.1,  999.0
2018/12/26 00:55,   12.2,   12.2,   13.3,   14.9,   15.2,   14.8,   14.2,   14.3,   13.5,   12.4,   13.1,   13.6,   13.3,   13.5,   14.0,   16.3,   19.8,   21.4,   22.3,   24.4,   27.9,   31.3,   32.5,   34.3,   39.4,   43.4,   40.5,   40.5,   39.5,   40.2,   40.5,   39.5,   38.9,   38.8,   39.9,   41.9,   41.7,   43.6,   46.1,   46.7,   49.1,   50.2,   54.1,   53.7,   55.5,   57.0,   56.8,   58.4,   60.4,   59.9,   62.8,   68.9,   72.2,   76.6,   73.5,   77.8,   72.4,   77.8,  999.0,  999.0,   71.9,  999.0,   74.8,  999.0,   74.2,   78.7,   77.3,   74.0,   76.3,   75.4,   78.2,   77.6,  999.0,   73.3,   73.6,   70.4,   75.2,   65.8,   73.9,   60.2,   60.9,   63.3,   65.9,   64.0,   71.0,  999.0,  999.0,   66.1,   70.5,   72.0,   65.0,   58.7,   61.3,   58.9,   61.0,   58.2,   55.3,   54.4,   50.6,   50.3,   46.5,   44.9,   46.5,   41.3,   43.6,   44.2,  999.0,  999.0,   37.3,   37.7,   35.2,   32.4,   31.3,   31.6,   26.8,   24.1,   22.7,   23.3,  999.0,  999.0
2018/12/26 01:05,   12.4,   12.8,   13.4,   14.8,   14.8,   15.3,   14.3,   14.1,   14.2,   12.5,   12.7,   12.3,   12.5,   13.3,   14.3,   16.7,   20.5,   20.6,   22.5,   24.3,   28.2,   31.4,   32.9,   34.4,   38.7,   42.2,   41.5,   39.5,   40.2,   40.6,   40.1,   39.5,   39.3,   38.9,   39.6,   40.8,   41.7,   44.0,   45.8,   46.8,   49.3,   51.2,   52.0,   54.9,   54.4,   55.8,   57.8,   59.7,   59.9,   60.0,   64.6,   69.1,   71.9,   76.7,   74.0,  999.0,   69.6,   78.2,   75.7,   75.7,  999.0,  999.0,  999.0,   77.4,   75.5,   79.3,   75.8,   72.9,   76.8,   78.8,   77.8,   77.7,   72.8,   74.2,   73.5,   71.7,   73.8,   65.6,   74.1,   57.1,   60.2,   62.5,   67.4,   63.6,   68.6,  999.0,  999.0,   65.4,   72.6,   69.3,   65.1,   60.1,   64.8,   59.5,   63.8,   57.0,   58.1,   54.6,   51.2,   49.2,   47.3,   44.2,   46.8,   45.5,   46.0,   50.6,   40.9,   41.6,  999.0,   36.9,   37.0,   31.6,   30.3,   32.9,   28.3,   26.0,   23.8,   25.1,   20.5,  999.0
2018/12/26 01:15,   12.3,   12.6,   12.8,   15.6,   16.3,   16.0,   15.0,   14.6,   13.4,   12.5,   12.7,   12.8,   12.7,   13.6,   14.7,   17.8,   20.1,   20.8,   23.3,   24.3,   28.1,   31.4,   32.6,   34.3,   38.5,   41.5,   41.8,   41.2,   40.8,   40.9,   40.3,   39.9,   39.4,   39.1,   38.9,   40.2,   41.0,   44.3,   46.3,   47.4,   48.4,   50.4,   51.9,   53.8,   54.4,   57.6,   61.0,   61.4,   59.4,   60.8,   66.0,   67.6,   73.8,   72.9,   74.8,  999.0,  999.0,  999.0,   74.2,   74.2,   79.8,   78.5,   78.1,  999.0,   75.8,  999.0,   74.0,   77.3,   76.6,   78.8,   78.9,  999.0,  999.0,   71.4,   72.8,   70.2,   72.3,   64.6,   70.8,   56.7,   60.1,   62.1,   65.7,   63.7,   68.9,  999.0,  999.0,   66.9,   72.4,   69.1,  999.0,   59.7,   64.3,   57.8,   62.8,   57.4,   59.0,   54.9,   51.0,   49.4,   50.1,   42.6,   45.9,   47.3,   47.2,  999.0,   41.9,   42.6,   34.5,   35.0,   30.2,   32.6,   29.2,   33.4,   23.3,   22.3,   22.4,   25.1,   19.2,  999.0
2018/12/26 01:25,   11.9,   12.3,   13.0,   15.5,   15.9,   15.2,   14.5,   14.1,   12.5,   11.9,   12.8,   12.5,   11.2,   12.6,   14.2,   17.9,   19.0,   21.0,   23.3,   24.7,   28.1,   31.1,   31.7,   34.1,   38.2,   41.4,   41.1,   40.1,   40.5,   40.4,   39.8,   39.8,   39.3,   39.1,   39.2,   40.9,   42.0,   44.9,   46.3,   46.9,   48.1,   49.6,   52.3,   54.9,   57.5,   60.9,   60.9,   61.3,   61.6,   61.8,   63.6,   66.6,   73.8,   71.1,   77.3,   76.9,   72.3,   78.6,   75.8,   75.9,  999.0,   76.1,   77.6,  999.0,   75.3,   77.1,   77.6,   76.5,   76.5,   77.4,  999.0,  999.0,  999.0,   69.3,   72.8,   70.8,   70.5,   67.2,   68.1,  999.0,   58.9,   60.4,   65.3,   64.2,   68.8,  999.0,  999.0,   65.6,   72.5,   70.4,   70.3,   60.4,   64.2,   58.6,   61.1,   56.0,   58.8,   55.7,   50.8,   49.2,   47.3,   44.4,   45.1,   47.5,   44.3,   45.5,  999.0,   40.5,  999.0,   35.2,   30.8,   31.1,   29.7,   33.0,   25.0,   22.1,   22.7,   25.9,   19.4,  999.0
2018/12/26 01:35,   12.8,   12.5,   13.4,   15.2,   15.8,   15.8,   14.6,   14.1,   13.6,   11.2,   11.7,   12.1,   12.1,   13.1,   15.3,   18.1,   19.7,   21.5,   24.5,   26.8,   28.3,   29.4,   31.1,   33.0,   37.7,   40.9,   40.7,   40.0,   40.1,   39.2,   38.9,   38.9,   38.6,   38.4,   38.9,   39.7,   41.2,   44.4,   45.7,   46.1,   47.9,   49.5,   52.9,   56.2,   59.6,   61.1,   60.5,   59.5,   60.4,   62.7,   64.3,   68.0,   74.8,   73.5,   73.0,  999.0,   72.8,   78.4,   76.8,   75.9,  999.0,   72.5,   79.8,   72.4,   77.7,   78.4,   78.4,   65.8,   77.0,   75.8,  999.0,   75.9,  999.0,   70.5,   73.8,   70.8,   71.7,   67.3,   66.9,  999.0,   56.4,   59.1,   62.9,   63.7,   65.7,   73.3,  999.0,   64.6,   69.9,   71.3,  999.0,   58.5,   63.8,   59.4,   60.9,   56.5,   59.1,   55.9,   51.8,   48.8,   49.2,   45.0,   43.4,   49.5,   46.8,   47.8,   42.2,   43.6,   32.5,   35.0,   31.6,   30.7,   30.7,   33.4,   25.8,   23.0,   24.2,   27.0,   20.0,  999.0
2018/12/26 01:45,   12.7,   12.8,   13.6,   14.7,   16.0,   16.0,   14.8,   14.6,   12.8,   12.1,   10.9,   11.9,   12.4,   13.3,   15.7,   19.3,   21.8,   23.7,   26.2,   27.3,   28.5,   29.6,   31.5,   34.1,   38.9,   42.1,   40.4,   39.9,   40.0,   39.4,   39.2,   38.8,   38.5,   38.6,   39.0,   40.1,   41.8,   44.7,   46.0,   45.7,   48.4,   49.9,   53.2,   55.9,   57.6,   60.0,   60.3,   60.1,   60.2,   63.5,   64.1,   69.4,   76.7,   72.3,   75.1,   73.7,   76.1,   77.7,   78.5,   76.5,  999.0,   75.5,  999.0,   73.1,   77.5,   79.8,  999.0,   69.0,   76.6,  999.0,  999.0,   77.7,   75.4,   72.6,   70.9,   69.4,   69.6,   70.5,   63.2,   65.5,  999.0,   58.2,   60.5,   65.3,   62.1,   69.4,   73.2,  999.0,   65.5,   71.3,   75.6,   56.5,   61.7,   58.5,   63.0,   56.1,   58.0,   55.5,   51.2,   49.5,   49.0,   45.7,   40.5,   46.5,   52.6,   44.0,   42.6,   43.4,   36.0,   35.6,  999.0,   28.3,   31.4,   31.6,   22.7,   22.8,   25.4,   26.2,  999.0,  999.0
2018/12/26 01:55,   12.3,   12.6,   12.5,   14.5,   15.4,   16.0,   14.9,   14.4,   13.6,   11.3,   10.7,   11.4,   12.0,   13.3,   16.3,   19.4,   22.1,   25.1,   26.3,   27.5,   29.2,   30.8,   31.8,   35.4,   40.1,   42.0,   40.1,   39.1,   38.9,   39.2,   38.5,   38.4,   38.4,   38.7,   39.1,   39.8,   41.1,   45.1,   45.2,   45.8,   48.2,   50.9,   53.9,   57.0,   57.6,   60.5,   60.9,   59.2,   60.0,   63.3,   66.0,   70.4,   74.5,   77.0,   78.0,   70.7,   76.4,   79.0,   70.4,   77.3,  999.0,   77.4,   80.0,   74.5,   78.7,  999.0,   77.7,   71.4,   77.6,  999.0,  999.0,   76.2,   77.1,   73.6,   69.7,   71.0,   69.5,   71.4,   65.1,   68.4,   62.6,   57.3,   61.1,   64.4,   63.8,   67.6,   75.2,  999.0,  999.0,   66.7,   72.0,   59.7,   60.6,   59.6,   60.8,   55.2,   57.8,   56.5,   52.5,   48.8,   48.2,   47.3,   44.2,   45.6,   50.3,   44.1,   40.1,   39.8,   36.9,   35.4,   32.9,   28.3,   31.6,   31.0,   22.8,   24.0,   25.1,   27.1,   22.2,  999.0
2018/12/26 02:05,   13.2,   12.9,   12.1,   13.6,   15.4,   16.2,   15.0,   14.2,   13.9,   11.2,   10.7,   10.8,   12.1,   13.7,   16.5,   21.1,   23.7,   27.6,   28.6,   29.3,   30.2,   30.7,   32.2,   36.4,   40.5,   40.7,   39.8,   39.9,   39.3,   38.8,   38.8,   38.5,   39.1,   39.0,   39.4,   39.2,   41.7,   44.6,   45.1,   46.8,   49.6,   52.7,   55.2,   57.5,   57.5,   58.5,   59.7,   59.9,   59.9,   62.4,   65.1,   68.4,   75.0,   74.6,   77.7,   70.6,   77.0,   75.3,   74.8,   78.1,   74.3,   78.5,  999.0,   78.1,   78.7,   77.6,   74.3,   74.1,   77.2,  999.0,  999.0,  999.0,  999.0,   74.0,   68.1,   71.6,   69.3,   69.1,   67.0,   68.6,   64.7,   57.5,   60.0,   63.9,   64.2,   67.0,   73.1,  999.0,  999.0,   66.2,   68.5,   66.2,   59.5,   61.8,   60.3,   56.1,   59.4,   58.9,   53.4,   50.3,   48.9,   47.8,   48.0,   46.3,   50.7,   45.6,   41.8,   38.8,   36.3,   37.8,   30.1,   29.5,   32.0,   32.6,   24.6,   25.1,   26.1,   28.1,   24.8,   24.1
2018/12/26 02:15,   12.7,   12.6,   12.4,   14.4,   16.1,   15.6,   14.7,   13.9,   13.5,   11.2,   10.3,   10.5,   11.9,   14.7,   16.8,   20.9,   23.9,   27.1,   28.8,   29.4,   29.4,   30.0,   31.9,   35.7,   39.1,   38.7,   38.4,   37.6,   37.4,   38.2,   38.0,   38.5,   38.8,   38.6,   39.7,   40.2,   41.9,   44.7,   45.6,   46.4,   49.4,   53.3,   56.7,   58.5,   58.6,   58.9,   59.0,   59.0,   61.1,   63.6,   64.0,   70.2,   75.8,   75.0,   78.6,   76.5,   77.3,   77.6,   76.5,  999.0,   74.2,   79.5,  999.0,   77.1,   78.6,   77.0,   74.6,   75.2,   76.5,   78.9,  999.0,   72.1,   77.6,   73.5,   73.3,   71.0,   69.2,   69.8,   66.7,   64.5,   63.8,   58.9,   59.9,   62.5,   62.6,   67.6,   72.5,   69.2,  999.0,   63.8,   68.1,   73.7,   58.4,   61.7,   59.6,   56.4,   56.3,   58.6,   52.9,   50.2,   48.6,   47.0,   44.8,   46.4,   49.2,   47.7,   41.1,   39.7,   34.8,   36.5,  999.0,  999.0,   30.2,   31.9,   25.7,   25.0,   26.0,  999.0,   21.4,   23.3
2018/12/26 02:25,   13.0,   12.5,   12.3,   14.2,   16.1,   15.4,   14.1,   14.2,   13.1,   11.3,   10.5,   11.5,   12.8,   15.3,   17.7,   21.4,   24.5,   28.3,   29.7,   29.3,   30.0,   29.5,   31.4,   35.6,   38.5,   37.3,   37.0,   36.7,   36.8,   37.3,   37.2,   38.0,   38.3,   39.0,   40.1,   39.7,   41.4,   44.5,   46.3,   47.0,   49.8,   53.2,   57.0,   58.4,   57.5,   58.4,   59.6,   59.9,   60.6,   63.1,   65.6,   71.8,   77.9,   74.2,   77.9,   73.8,   77.2,   77.7,   77.7,  999.0,   77.1,  999.0,  999.0,   78.8,   79.5,  999.0,   73.6,   79.8,  999.0,  999.0,  999.0,   74.7,   77.9,   74.0,   72.4,   70.7,   69.4,   73.6,   64.8,  999.0,   63.2,   60.3,   59.8,   63.0,   64.0,   66.0,   71.2,  999.0,  999.0,   65.3,   69.3,   71.5,   59.0,   61.9,   56.6,   62.1,   53.9,   55.6,   53.7,   51.4,   48.3,   46.6,   44.2,   45.2,   46.5,   46.2,   43.2,   41.7,   34.2,   36.4,  999.0,   30.5,   29.4,   29.7,   25.8,   25.2,   27.2,   25.3,  999.0,  999.0
2018/12/26 02:35,   11.9,   11.8,   12.2,   15.4,   16.4,   15.1,   14.4,   13.5,   12.3,   11.8,   10.9,   11.2,   13.2,   15.7,   17.9,   22.8,   25.9,   28.9,   29.2,   30.0,   29.2,   29.5,   30.8,   33.6,   36.4,   36.0,   36.3,   36.7,   35.6,   36.6,   36.2,   37.4,   38.1,   38.6,   39.7,   42.3,   43.5,   44.3,   45.2,   48.1,   49.5,   52.2,   55.8,   56.7,   57.2,   57.3,   57.6,   58.2,   60.0,   61.1,   65.9,   72.7,   77.3,   74.6,   77.5,   74.3,   79.5,   76.9,   75.5,  999.0,   79.8,  999.0,  999.0,   75.1,   76.1,  999.0,   74.0,   79.1,   73.1,  999.0,  999.0,  999.0,   78.0,   76.5,   73.4,   68.9,   70.3,   71.8,   66.6,   70.3,  999.0,   58.3,   60.2,   64.5,   64.1,   65.6,   67.4,   71.4,   66.6,   66.6,   70.7,   67.3,   60.0,   61.7,   54.5,   61.7,   53.3,   55.7,   55.5,   50.4,   48.8,   47.4,   44.5,   42.6,   44.3,   42.0,   43.4,   33.8,   34.0,   36.1,  999.0,  999.0,   27.1,   28.3,   24.8,   25.4,   27.4,   31.1,   26.4,  999.0
2018/12/26 02:45,   12.0,   11.4,   11.8,   15.3,   16.7,   15.3,   14.1,   13.2,   12.8,   12.0,   10.2,   10.8,   11.5,   15.1,   17.6,   22.2,   26.7,   28.8,   29.2,   29.1,   29.2,   28.7,   29.7,   31.9,   34.8,   35.7,   35.5,   35.1,   34.8,   35.2,   36.2,   36.9,   38.4,   37.9,   39.6,   43.1,   43.9,   45.1,   47.9,   50.0,   49.9,   50.5,   55.5,   54.7,   57.4,   56.8,   57.1,   58.4,   57.9,   61.8,   67.6,   74.5,   76.3,   73.9,   75.2,   74.2,  999.0,   76.7,   79.6,   75.4,  999.0,  999.0,  999.0,  999.0,   79.0,   78.5,   78.8,   79.0,   79.9,  999.0,  999.0,   76.1,   78.4,   77.9,   73.4,   69.0,   73.4,   67.2,   68.4,   61.5,   61.6,   59.5,   62.6,   65.8,   65.9,   67.0,   71.9,   68.8,   68.1,   66.2,   72.1,   72.4,   59.1,   62.9,   56.3,   59.3,   57.0,   57.5,   54.5,   50.9,   48.8,   47.3,   45.5,   43.0,   46.3,   41.4,   44.7,   35.5,   35.4,   34.7,   36.6,   29.7,   29.7,   28.0,   26.6,   25.8,   25.9,   24.5,   26.3,  999.0
2018/12/26 02:55,   12.1,   11.7,   11.7,   13.6,   16.0,   14.9,   14.4,   12.7,   12.4,   12.4,   11.7,   11.2,   11.6,   13.9,   18.6,   21.7,   25.5,   26.8,   28.5,   28.9,   29.7,   29.8,   30.7,   31.3,   33.4,   35.0,   34.4,   33.8,   34.8,   35.3,   35.6,   35.1,   36.0,   37.6,   39.0,   42.1,   45.1,   47.7,   50.7,   51.2,   52.1,   51.0,   54.6,   53.9,   57.9,   56.9,   56.1,   55.5,   58.3,   61.6,   67.3,   74.1,   75.0,   72.8,   77.6,   73.9,   78.8,   79.3,   78.1,   75.9,  999.0,   77.8,  999.0,   78.1,   78.7,  999.0,  999.0,  999.0,   80.0,  999.0,   73.7,   76.8,  999.0,   75.7,   73.1,   70.9,   74.7,   66.6,   72.7,   58.7,   60.4,   63.8,   64.4,   66.7,   62.0,   68.9,  999.0,   68.9,   65.2,   65.3,   71.6,   70.7,   57.3,   59.1,   58.5,   57.9,   56.7,   55.0,   56.2,   54.7,   49.7,   47.4,   46.9,   43.2,   45.9,   43.9,   42.0,   38.5,   36.2,   36.7,  999.0,   29.9,   30.4,   28.8,   27.7,   24.9,   28.2,   25.2,  999.0,  999.0
2018/12/26 03:05,   12.3,   11.8,   12.2,   14.7,   17.1,   17.1,   15.8,   13.5,   12.8,   12.8,   12.4,   11.7,   12.0,   14.6,   19.6,   21.7,   24.8,   25.9,   27.1,   27.5,   28.8,   30.8,   31.4,   30.7,   32.1,   34.3,   34.9,   33.9,   34.4,   35.5,   35.3,   34.1,   34.8,   35.7,   37.9,   40.2,   43.3,   46.7,   49.0,   49.7,   50.4,   50.5,   52.0,   53.1,   54.3,   54.7,   55.1,   55.3,   57.3,   61.8,   68.6,   76.2,   73.3,   76.0,  999.0,   69.8,   76.1,   76.5,   79.0,   77.6,   75.5,  999.0,  999.0,  999.0,  999.0,  999.0,  999.0,   77.7,   78.7,  999.0,  999.0,   76.2,   78.4,   71.3,   72.9,   71.8,   74.1,   67.3,   72.0,   56.3,   59.2,   62.9,   63.8,   66.0,   64.9,   69.8,   67.1,  999.0,   67.1,   66.9,   73.4,   61.1,   56.9,   58.5,   59.9,   59.7,   62.0,   54.9,   53.0,   54.6,   51.3,   48.6,   46.6,   45.2,   44.5,   43.6,   42.1,   38.1,   35.0,   36.6,  999.0,   27.9,   30.4,   27.2,   28.3,  999.0,   27.6,   24.0,   25.1,  999.0
2018/12/26 03:15,   12.0,   12.0,   12.4,   16.7,   18.4,   17.6,   16.6,   14.2,   14.0,   13.1,   13.0,   12.6,   12.7,   17.4,   19.6,   21.3,   22.9,   24.8,   26.7,   28.3,   29.5,   30.9,   31.5,   31.9,   32.7,   34.2,   34.0,   34.5,   34.1,   34.3,   34.1,   33.4,   34.4,   35.6,   36.9,   39.7,   43.2,   45.3,   47.9,   49.2,   49.4,   49.9,   51.7,   52.4,   53.9,   55.5,   55.7,   55.1,   58.4,   64.6,   73.4,   77.8,   73.0,   79.1,  999.0,  999.0,   76.4,   76.9,   78.2,   76.8,  999.0,  999.0,  999.0,   78.3,  999.0,  999.0,  999.0,   75.2,   77.9,   79.5,   76.2,   79.3,   74.8,   72.5,   76.0,   73.9,   69.1,   66.7,   68.4,  999.0,   60.1,   62.9,   63.6,   63.8,   68.0,  999.0,  999.0,  999.0,   68.7,   66.8,   73.3,  999.0,   56.6,   60.1,   54.6,   59.7,   63.5,   55.5,   53.4,   53.1,   51.3,   49.1,   47.0,   46.2,   42.3,   42.9,   40.4,   41.0,   37.2,   33.9,   30.3,   28.6,   31.6,   26.7,   28.9,   26.2,   27.4,   27.1,   24.8,  999.0
2018/12/26 03:25,   11.8,   12.1,   12.5,   17.8,   17.4,   16.1,   14.7,   14.8,   13.5,   13.4,   12.9,   12.9,   15.3,   19.8,   21.4,   22.8,   24.8,   25.8,   26.4,   27.0,   28.5,   30.6,   31.9,   30.8,   31.1,   32.2,   32.0,   32.1,   32.8,   33.8,   34.2,   33.3,   33.7,   35.2,   37.3,   40.3,   43.9,   46.2,   47.1,   48.1,   49.0,   49.4,   51.3,   51.7,   53.7,   56.2,   55.9,   56.1,   58.6,   65.2,   73.7,   75.1,   74.8,   76.6,  999.0,   67.3,   78.1,   74.6,  999.0,   76.5,  999.0,  999.0,  999.0,   72.1,  999.0,  999.0,  999.0,  999.0,   72.0,   74.0,   76.6,   79.2,  999.0,   72.5,   74.9,   70.3,   69.1,   62.6,   70.1,   65.5,   64.8,   60.5,   63.5,   66.7,   69.8,   71.8,  999.0,   63.3,   71.2,   68.1,   70.0,   66.6,   57.7,   59.2,   53.5,   57.4,   61.5,   53.7,   55.8,   56.4,   49.4,   47.6,   45.0,   43.5,   42.9,   46.2,   36.7,   38.3,   35.2,   33.1,   33.0,   29.3,   31.7,   30.7,   29.1,   26.3,   29.4,   28.3,   23.6,  999.0
2018/12/26 03:35,   12.1,   12.7,   12.7,   16.8,   17.4,   15.5,   15.1,   14.5,   13.5,   13.1,   11.6,   12.9,   16.5,   19.7,   22.5,   24.4,   25.2,   25.6,   26.9,   29.6,   31.1,   31.6,   32.2,   33.3,   33.2,   32.4,   31.3,   31.8,   34.0,   34.3,   34.5,   33.8,   33.3,   35.3,   38.2,   40.7,   43.2,   46.3,   47.4,   48.1,   49.2,   50.0,   49.3,   52.6,   54.8,   55.9,   55.8,   56.5,   60.1,   67.4,   75.7,   74.6,   73.6,   76.1,  999.0,  999.0,   76.6,   77.8,   79.1,   79.4,   79.3,  999.0,   78.8,  999.0,  999.0,  999.0,  999.0,  999.0,  999.0,   76.4,   74.9,   78.8,   75.8,   72.0,   73.8,   75.8,   67.6,   61.8,   67.7,   69.5,   71.0,   61.4,   63.5,   66.0,   66.1,  999.0,  999.0,   64.5,   73.0,   67.4,   70.4,   71.7,   57.7,   58.6,   54.3,   56.8,   62.1,   49.4,   55.1,   59.7,   50.0,   48.6,   44.5,   44.0,   42.8,   43.1,   34.9,   36.3,   32.9,   32.2,   33.0,   28.2,   30.6,   31.6,   28.7,  999.0,  999.0,   22.1,   20.9,   25.7
2018/12/26 03:45,   12.7,   12.7,   12.7,   16.8,   17.3,   15.1,   14.4,   14.2,   13.5,   13.3,   12.9,   14.9,   19.2,   21.3,   23.7,   24.9,   25.7,   25.4,   26.3,   27.6,   30.3,   32.1,   34.2,   35.1,   36.2,   35.7,   33.0,   32.3,   34.3,   35.2,   33.9,   33.6,   31.1,   33.3,   35.6,   40.2,   43.2,   46.2,   46.3,   47.9,   48.8,   50.5,   51.2,   52.9,   53.8,   54.9,   55.1,   56.6,   60.9,   68.3,   76.4,   74.2,   73.4,   77.7,  999.0,  999.0,   75.5,   78.6,  999.0,   76.4,  999.0,  999.0,  999.0,  999.0,   77.8,  999.0,  999.0,  999.0,  999.0,   77.6,  999.0,   79.4,  999.0,   72.5,   75.4,   75.5,   67.0,   67.1,   65.7,  999.0,  999.0,   60.7,   64.0,   63.9,   68.4,  999.0,  999.0,   66.1,   72.9,  999.0,   67.6,   71.2,   56.0,   56.9,   61.0,   54.8,   61.9,   58.7,   56.3,   59.3,   52.2,   48.4,   45.0,   45.6,   42.0,   44.0,   35.1,   38.8,   32.4,   30.7,   32.2,   31.8,   30.2,   32.1,   31.3,  999.0,   28.5,  999.0,   22.7,   25.0
2018/12/26 03:55,   13.9,   13.1,   13.9,   15.3,   15.7,   14.7,   14.1,   13.6,   13.1,   13.2,   13.7,   16.8,   20.0,   23.1,   24.0,   24.6,   25.7,   26.9,   28.2,   29.2,   30.6,   31.9,   33.8,   36.5,   38.4,   38.4,   36.0,   35.2,   36.8,   37.3,   32.7,   32.3,   30.4,   32.4,   35.5,   39.9,   43.4,   45.7,   46.0,   48.4,   48.7,   50.8,   53.7,   54.7,   55.0,   55.2,   53.5,   56.4,   61.9,   69.4,   75.1,   71.8,   73.1,   74.9,   76.0,  999.0,   75.2,   76.5,  999.0,   77.3,  999.0,  999.0,   78.5,  999.0,   79.6,  999.0,  999.0,  999.0,   79.3,   78.0,   78.7,  999.0,   78.0,   71.1,   75.7,   73.4,   68.3,   68.9,   65.2,   70.6,  999.0,   59.8,   63.7,   65.0,   70.0,   69.9,   64.4,   65.4,   71.4,  999.0,   68.1,   69.3,   59.6,   56.3,   61.3,   52.6,   60.1,   58.9,   56.3,   54.3,   50.1,   46.8,   45.7,   44.1,   45.5,   43.7,   38.0,   37.8,   37.6,   32.2,   33.3,   34.6,   30.4,   32.3,   30.5,  999.0,   28.5,  999.0,   25.2,   26.4
2018/12/26 04:05,   13.6,   13.6,   13.9,   14.6,   14.8,   14.1,   13.4,   13.0,   12.9,   12.9,   15.2,   19.0,   22.8,   24.3,   25.1,   25.7,   26.0,   26.5,   27.5,   28.4,   29.3,   31.4,   33.2,   35.4,   37.6,   37.7,   36.4,   38.1,   39.7,   39.4,   36.5,   35.0,   33.2,   34.5,   34.7,   38.6,   42.2,   45.2,   48.2,   49.1,   50.6,   51.6,   53.4,   53.9,   54.6,   55.2,   55.0,   56.7,   63.2,   71.0,   76.3,   72.9,   74.3,   76.8,   76.9,   75.6,   76.1,   78.2,   75.8,   78.4,  999.0,  999.0,   79.2,   78.7,  999.0,  999.0,  999.0,  999.0,   77.6,  999.0,   77.8,  999.0,   76.4,   78.3,   73.0,   74.7,   65.6,   70.5,   67.4,   68.2,   64.3,   61.0,   64.0,   67.3,   68.2,  999.0,  999.0,   63.2,   71.0,   79.7,   66.8,   68.4,   55.0,   57.2,   62.2,   52.3,   58.4,   55.5,   54.3,   53.8,   53.7,   48.5,   46.4,   43.0,   43.8,   44.1,   40.1,   37.7,   37.0,   32.6,   35.1,   37.2,  999.0,   30.6,   29.8,   27.3,   30.6,  999.0,   26.4,   27.6
2018/12/26 04:15,   13.4,   12.8,   13.2,   13.7,   14.0,   13.5,   13.0,   12.8,   12.6,   13.1,   17.7,   21.9,   24.5,   25.5,   25.9,   26.1,   26.8,   27.3,   27.9,   29.0,   29.7,   30.5,   31.8,   32.9,   36.0,   39.4,   41.3,   40.8,   40.9,   40.1,   38.8,   37.2,   36.1,   35.3,   35.5,   38.6,   43.2,   47.4,   48.9,   50.5,   53.0,   54.6,   55.2,   54.9,   54.9,   53.7,   53.6,   59.0,   65.1,   71.2,   75.2,   75.3,   73.9,   75.7,   77.3,   76.3,   77.8,   77.9,   78.1,   79.1,  999.0,  999.0,  999.0,  999.0,  999.0,  999.0,  999.0,   79.0,   78.6,  999.0,   78.3,  999.0,   75.2,   76.1,   77.0,   70.4,   65.4,   68.6,   70.6,   69.0,  999.0,   61.8,   62.6,   66.9,   66.1,   69.8,   66.6,   65.9,   69.5,   70.9,   67.7,  999.0,   54.4,   57.0,   62.9,   52.1,   57.4,   58.2,   54.7,   55.1,   52.7,   48.3,   45.5,   44.4,   42.9,   40.1,   37.8,   39.9,   38.1,   31.2,   35.3,  999.0,   29.3,   30.0,   31.9,   32.1,  999.0,  999.0,  999.0,   27.0
2018/12/26 04:25,   12.7,   12.2,   12.7,   13.9,   14.5,   14.3,   13.7,   13.4,   13.2,   12.9,   17.6,   21.9,   24.6,   25.9,   26.6,   27.0,   27.1,   27.4,   28.5,   30.0,   30.5,   30.5,   31.7,   33.0,   35.4,   39.4,   44.0,   45.1,   43.6,   42.5,   41.4,   39.3,   36.6,   34.8,   35.7,   39.1,   42.7,   46.9,   49.5,   51.6,   54.1,   54.7,   55.6,   56.1,   55.4,   55.9,   57.2,   61.2,   67.3,   73.4,   73.8,   71.0,   79.1,   76.6,   75.2,   76.4,   79.1,   77.4,   76.3,  999.0,  999.0,  999.0,  999.0,   78.8,  999.0,  999.0,  999.0,  999.0,   77.7,   74.2,   78.4,  999.0,  999.0,   76.5,   73.4,   71.3,   69.6,   69.2,   72.6,   68.7,  999.0,  999.0,   61.8,   67.6,   65.1,   69.1,   69.9,   66.8,   70.1,   73.7,   67.2,  999.0,   54.7,   56.7,   58.8,   53.1,   59.5,   54.1,   55.4,   54.1,   53.1,   51.6,   46.0,   46.5,  999.0,   42.6,   38.7,   39.1,   37.6,   31.4,  999.0,  999.0,   29.7,   30.5,   32.7,  999.0,  999.0,  999.0,   25.4,   26.5
2018/12/26 04:35,   11.6,   12.0,   12.8,   13.6,   13.3,   13.9,   14.0,   13.2,   13.3,   14.2,   18.2,   21.9,   25.3,   26.4,   26.8,   27.5,   28.3,   28.7,   29.7,   29.9,   29.9,   30.2,   31.5,   32.4,   34.7,   38.6,   42.0,   45.3,   46.4,   44.8,   42.5,   40.5,   38.6,   36.4,   36.1,   38.4,   41.3,   45.0,   48.6,   51.6,   50.9,   53.0,   54.0,   53.9,   54.3,   55.7,   57.9,   60.4,   67.5,   74.6,   74.6,   71.9,   75.8,   78.1,   75.6,   78.3,   77.7,   78.8,  999.0,   79.5,  999.0,  999.0,  999.0,   78.6,   79.3,  999.0,  999.0,  999.0,   75.8,  999.0,   78.2,  999.0,   75.5,   73.9,   72.3,   73.8,   70.0,   71.3,   71.4,   68.0,  999.0,   63.2,   60.1,   67.9,   67.6,   72.9,  999.0,   65.8,   69.9,   66.9,   66.6,   64.1,   54.5,   55.9,   57.3,   52.4,   57.0,   58.2,   56.2,   52.7,   55.9,   49.6,   44.3,   45.7,   41.4,   45.3,   39.4,   39.6,   39.7,   33.8,   34.9,  999.0,   30.2,   32.4,   33.1,   28.5,   27.9,  999.0,  999.0,   23.6
2018/12/26 04:45,   12.0,   12.0,   13.1,   11.8,   11.8,   12.4,   12.2,   16.2,   15.6,   15.4,   16.5,   21.9,   24.7,   25.9,   28.3,   29.6,   30.1,   29.9,   29.7,   29.6,   30.0,   29.9,   30.0,   30.4,   33.8,   37.6,   41.4,   45.0,   46.6,   46.5,   45.0,   43.9,   42.2,   40.6,   37.6,   36.9,   39.9,   43.5,   48.0,   48.8,   51.2,   54.0,   54.0,   54.4,   54.5,   55.0,   57.1,   61.6,   68.7,   74.6,   72.8,   74.7,   76.6,   77.5,   78.5,   75.0,   75.9,  999.0,  999.0,   77.7,  999.0,  999.0,  999.0,   79.7,  999.0,  999.0,  999.0,   78.2,  999.0,  999.0,   79.8,  999.0,   78.4,   76.5,   76.0,   70.8,   68.4,   73.0,   66.3,   66.4,   68.3,   67.4,   58.4,   65.4,  999.0,   72.7,   74.1,  999.0,   65.2,  999.0,   64.3,  999.0,   56.7,   55.1,   60.5,   51.0,   55.2,   54.5,  999.0,   52.6,   53.7,   51.8,   44.1,   46.1,   40.8,   44.9,   42.1,   43.0,   37.2,   37.9,   34.4,   35.1,  999.0,   29.9,   31.9,  999.0,  999.0,  999.0,   26.3,   26.1
2018/12/26 04:55,   11.9,   12.7,   13.0,   12.0,   12.4,   12.3,   13.0,   17.6,   18.4,   17.8,   19.0,   23.2,   26.1,   27.6,   29.6,   29.8,   29.8,   30.4,   30.2,   29.5,   29.7,   29.5,   29.2,   30.4,   34.3,   37.2,   41.3,   45.5,   47.4,   48.2,   48.7,   49.0,   47.5,   46.6,   44.8,   40.8,   40.9,   43.6,   47.8,   49.4,   51.6,   54.2,   54.7,   54.2,   54.5,   56.5,   61.2,   67.3,   73.0,   73.4,   75.3,   75.9,   77.3,   74.9,   78.3,   73.9,   78.1,  999.0,  999.0,  999.0,  999.0,  999.0,  999.0,  999.0,  999.0,  999.0,   78.0,   78.2,  999.0,  999.0,   76.1,   79.5,   78.3,   75.5,   73.3,   71.5,   68.9,   73.0,   72.8,   65.6,   70.7,   67.8,   72.8,   61.0,   69.9,  999.0,   73.5,   64.5,   65.8,   67.2,   64.8,   65.0,   58.6,   53.9,   57.4,   54.1,   59.0,   53.0,   54.0,   52.8,   53.0,   49.5,   45.6,   45.7,   42.4,   42.6,   42.6,   43.5,   41.9,   34.3,   34.2,   33.8,   30.2,   30.6,   32.1,  999.0,  999.0,  999.0,  999.0,  999.0
2018/12/26 05:05,   11.8,   13.0,   14.0,   13.2,   13.9,   14.7,   15.0,   18.1,   19.1,   18.8,   19.8,   24.3,   26.5,   27.9,   28.7,   27.4,   27.8,   28.3,   27.9,   28.3,   28.6,   29.1,   29.5,   32.6,   35.6,   39.7,   40.7,   44.2,   44.5,   48.3,   49.7,   51.5,   48.7,   47.6,   44.5,   40.6,   41.4,   44.5,   47.9,   50.3,   51.7,   54.5,   55.2,   55.2,   55.0,   56.7,   62.1,   67.5,   73.0,   71.5,   73.2,   76.5,   79.2,   74.7,   79.4,   75.3,   77.6,   78.9,  999.0,   77.7,  999.0,  999.0,  999.0,   78.2,  999.0,  999.0,  999.0,  999.0,  999.0,   78.7,   78.0,  999.0,   79.4,   74.6,   77.1,   72.2,   68.1,   72.6,   68.8,   66.7,   70.6,   66.4,   72.0,   63.2,   69.9,  999.0,   71.4,  999.0,   70.9,   67.5,   63.7,   67.5,   54.0,   55.9,   57.8,   54.2,   54.9,   52.5,   54.4,   53.5,   53.1,   49.2,   44.6,   46.1,   41.4,   43.9,   41.2,   42.1,   43.2,   34.4,   35.9,   30.9,   29.5,   29.5,   33.9,  999.0,  999.0,  999.0,  999.0,   23.4
2018/12/26 05:15,   11.2,   13.7,   14.7,   13.6,   15.3,   15.9,   14.6,   17.3,   19.7,   20.1,   20.7,   24.7,   26.8,   28.2,   28.4,   28.6,   26.7,   27.4,   28.0,   27.6,   26.4,   27.1,   29.7,   31.8,   34.9,   39.3,   41.8,  999.0,   47.6,   45.4,   48.4,   49.4,   49.1,   47.0,   45.5,   43.1,   43.5,   46.9,   49.4,   51.1,   53.5,   53.6,   53.5,   53.3,   53.5,   57.8,   63.0,   68.2,   71.9,   72.8,   72.0,   76.2,   77.1,   73.1,   77.2,   76.7,   77.2,   78.2,  999.0,   78.4,   78.2,  999.0,  999.0,   79.8,  999.0,  999.0,   77.6,  999.0,  999.0,   78.5,   78.0,  999.0,  999.0,   78.6,   76.0,   73.4,   69.2,   69.1,   71.6,   69.7,   66.5,   69.4,   69.8,   66.1,   69.0,  999.0,  999.0,   75.3,  999.0,  999.0,   63.8,   70.7,   55.5,   59.4,   56.4,  999.0,   54.0,   55.3,   53.9,   53.6,   52.4,   48.0,   45.6,   47.1,   40.9,   44.1,   43.4,   42.0,   43.8,  999.0,  999.0,  999.0,   31.3,   32.6,  999.0,  999.0,  999.0,  999.0,  999.0,   23.1
2018/12/26 05:25,   11.7,   14.4,   13.5,   14.3,   15.9,   15.9,   15.7,   18.6,   20.6,   21.5,   20.7,   23.7,   26.8,   28.7,   29.7,   29.1,   28.5,   29.1,   28.5,   28.6,   29.0,   28.3,   29.4,   32.5,   35.1,   39.2,   41.9,   45.7,   49.5,   49.8,   50.6,   51.0,   51.0,   51.0,   47.8,   45.2,   46.0,   46.8,   50.4,   52.0,   53.4,   53.6,   53.4,   52.8,   54.9,   58.7,   63.6,   68.0,   71.5,   73.9,   70.5,   74.0,   77.3,   78.4,   74.3,   78.9,   76.4,   78.9,   79.0,   78.2,   79.1,  999.0,  999.0,  999.0,  999.0,  999.0,   75.9,   79.7,   79.2,  999.0,   78.0,   80.0,  999.0,   78.3,   75.2,   74.5,   68.9,   68.7,   70.3,   68.7,   70.8,   68.6,   65.1,   65.5,   70.0,  999.0,  999.0,   68.1,   70.1,   66.6,   66.6,   66.7,   51.8,   55.6,   54.3,   57.4,   53.8,   55.0,   55.7,   51.6,   50.7,   49.0,   45.7,   46.3,   44.0,   43.4,   41.0,   40.5,   42.4,   35.0,   35.0,  999.0,   31.9,   32.1,  999.0,  999.0,  999.0,  999.0,  999.0,   19.6
2018/12/26 05:35,   15.9,   15.3,   15.5,   14.9,   16.1,   17.1,   18.6,   19.7,   20.7,   19.9,   20.0,   23.1,   26.2,   27.8,   28.7,   28.2,   29.1,   28.9,   28.4,   28.6,   29.0,   29.3,   30.5,   32.6,   35.8,   38.9,   42.0,   45.5,   47.6,   50.3,   51.3,   50.9,   50.6,   50.2,   47.9,   46.3,   46.5,   47.9,   50.3,   52.2,   55.2,   55.0,   53.6,   53.1,   54.3,   57.8,   63.2,   69.0,   71.4,   73.7,   72.2,   75.3,   76.9,   74.9,   76.4,   76.3,   75.9,   79.2,  999.0,   75.8,  999.0,   80.0,   77.3,   78.8,  999.0,  999.0,   78.2,   79.0,   74.8,   78.2,   79.4,  999.0,  999.0,   77.3,   76.2,   77.3,   68.3,   67.9,   71.6,   68.9,   68.3,   71.1,   73.2,   62.0,   69.6,  999.0,   70.1,   67.4,   71.4,   65.7,   65.8,   64.3,   55.6,   57.7,   53.4,   53.2,   54.8,   57.3,   52.9,   51.0,   49.9,   48.9,   46.2,   45.4,   44.7,   42.3,   41.9,   42.6,   42.5,   42.0,  999.0,  999.0,   33.3,   33.2,  999.0,  999.0,  999.0,  999.0,   26.0,  999.0
2018/12/26 05:45,   16.4,   15.0,   15.0,   16.6,   17.2,   18.3,   19.0,   18.9,   19.6,   19.2,   19.2,   22.5,   26.7,   27.2,   27.5,   27.7,   28.9,   29.1,   29.1,   29.3,   29.5,   29.5,   30.3,   31.3,   33.9,   37.4,   41.7,   45.4,   47.5,   50.1,   51.7,   51.5,   51.9,   52.1,   48.1,   47.3,   48.0,   48.0,   50.5,   53.8,   54.3,   54.0,   53.2,   53.0,   54.3,   57.4,   63.0,   69.5,   70.9,   71.0,   73.3,   75.0,   76.4,   77.3,   79.6,   74.7,   77.0,  999.0,   79.9,   77.9,  999.0,   79.0,   79.5,  999.0,  999.0,  999.0,   70.0,   78.9,  999.0,  999.0,  999.0,  999.0,  999.0,   76.7,  999.0,   72.3,   70.3,   70.4,   71.9,   70.7,   68.0,   71.6,   66.6,   62.7,   72.7,  999.0,  999.0,   66.8,   71.2,   69.8,   63.9,   65.5,   55.6,   59.3,  999.0,   51.6,   54.9,   60.0,   52.8,   49.5,   49.6,   46.9,   44.9,   43.9,   44.0,   40.8,   40.9,   42.8,   39.9,   39.8,  999.0,  999.0,   33.1,   33.1,   29.8,  999.0,  999.0,  999.0,   24.6,   26.7
2018/12/26 05:55,   16.3,   15.7,   16.0,   16.4,   17.9,   19.1,   19.7,   20.0,   20.0,   19.7,   19.9,   23.5,   26.8,   27.8,   27.9,   28.0,   28.8,   29.3,   29.2,   29.9,   29.3,   30.2,   30.1,   28.8,   35.4,   37.9,   41.1,   43.2,   47.6,   47.9,   50.3,   51.3,   51.4,   52.2,   50.3,   47.3,   47.4,   48.7,   51.3,   54.1,   52.9,   53.9,   53.3,   53.9,   54.8,   56.0,   61.6,   68.4,   71.2,   70.5,   73.7,   78.0,   77.4,   77.1,   78.7,   76.2,   78.9,  999.0,  999.0,  999.0,  999.0,   79.9,   79.2,  999.0,  999.0,  999.0,  999.0,   76.2,  999.0,  999.0,   79.1,  999.0,  999.0,   77.7,   79.3,   71.2,   70.9,   71.5,   73.7,   69.4,   67.1,   71.5,   74.2,   66.7,   69.3,   72.1,   71.8,   66.7,   70.5,   64.1,   66.4,   66.6,   57.2,   57.8,  999.0,   53.0,   57.0,  999.0,  999.0,   49.3,   47.3,   46.0,   43.2,   44.0,   42.2,   40.9,   42.3,   42.7,   40.6,   40.9,   40.3,  999.0,   33.7,   33.8,   32.1,   29.5,  999.0,   27.2,   26.1,   26.9
2018/12/26 06:05,   15.3,   16.1,   16.1,   16.9,   18.6,   19.3,   19.6,   19.9,   19.7,   19.8,   19.9,   23.6,   27.1,   29.1,   29.1,   28.8,   28.2,   28.8,   29.2,   29.8,   29.8,   29.4,   28.5,   29.8,   32.7,   37.4,   39.2,   42.2,   46.7,   50.3,   51.1,   48.8,   51.3,   51.4,   50.0,   45.8,   46.8,   46.9,   50.1,   53.4,   53.3,   51.9,   53.9,   54.1,   54.8,   57.3,   62.7,   68.2,   69.2,   70.2,   72.4,   75.9,   75.6,   77.9,   77.1,  999.0,  999.0,  999.0,  999.0,  999.0,  999.0,  999.0,  999.0,  999.0,  999.0,  999.0,  999.0,  999.0,  999.0,  999.0,   79.7,  999.0,  999.0,   78.2,   78.8,   74.1,   73.2,   71.9,  999.0,   69.7,   66.5,   72.4,  999.0,   69.1,   67.9,   70.1,   71.0,   64.8,   69.5,   69.0,   66.7,   65.0,   57.8,   58.3,   52.0,   55.2,   56.8,  999.0,   46.1,   52.3,   49.7,   46.1,   44.9,   43.6,  999.0,   37.5,   41.9,   41.8,   39.3,   38.8,   40.9,   34.8,   32.8,   33.7,   36.2,  999.0,  999.0,  999.0,   25.8,   27.3
2018/12/26 06:15,   15.6,   16.9,   16.1,   17.8,   19.4,   19.3,   19.4,   19.9,   19.9,   20.1,   21.3,   24.4,   27.9,   29.6,   29.3,   29.4,   29.4,   29.5,   29.8,   29.3,   28.9,   28.4,   28.7,   30.6,   33.4,   36.4,   39.6,   43.4,   46.9,   50.0,   49.4,   50.1,   50.5,   50.9,   49.5,   46.6,   45.0,   46.7,   48.0,   52.2,   52.7,   53.2,   53.4,   53.9,   54.4,   57.0,   62.0,   67.4,   67.8,   70.2,   72.5,   77.9,   77.1,   76.7,   77.9,   78.3,  999.0,  999.0,  999.0,  999.0,  999.0,   78.6,  999.0,  999.0,  999.0,   73.0,   79.9,  999.0,  999.0,  999.0,  999.0,  999.0,   74.3,   78.4,   78.6,   74.0,   74.9,   70.7,  999.0,  999.0,   71.2,   76.7,   69.0,   70.2,   78.8,   68.7,   63.0,   68.8,   69.5,   68.7,   67.3,   60.3,   56.1,   57.8,   56.8,   54.6,   58.5,  999.0,   44.6,   50.6,   50.8,   45.0,   45.5,   43.2,   35.5,   41.4,   44.7,   42.3,   40.4,   40.7,   36.2,   31.8,   32.9,   34.2,   36.8,  999.0,   23.8,  999.0,   25.8,   26.0
2018/12/26 06:25,  999.0,   17.5,   16.5,   16.9,   18.9,   19.1,   18.3,   19.4,   19.7,   20.3,   23.1,   25.9,   28.3,   29.1,   29.6,   29.8,   29.2,   29.4,   29.1,   28.7,   29.1,   29.8,   29.7,   30.4,   32.4,   35.3,   38.5,   42.5,   46.2,   49.9,   49.2,   49.3,   50.4,   50.6,   50.5,   48.6,   46.1,   47.1,   48.4,   53.0,   53.5,   53.0,   53.9,   54.4,   55.7,   57.3,   63.0,   64.9,   66.2,   71.9,   74.5,   77.8,   75.4,   77.7,  999.0,  999.0,   76.1,  999.0,   79.4,  999.0,  999.0,  999.0,  999.0,  999.0,  999.0,  999.0,  999.0,  999.0,  999.0,  999.0,  999.0,  999.0,  999.0,   79.1,  999.0,   71.1,   75.8,   70.2,   71.9,   71.6,  999.0,   72.0,   68.7,   72.1,   78.2,  999.0,   68.3,   69.5,   68.6,   68.9,   66.5,   56.9,   62.7,   55.5,   57.1,   52.7,   56.8,   58.0,   46.2,   50.1,   56.4,   45.9,   44.9,   45.9,   41.3,   41.9,   46.9,   41.5,   37.0,   40.3,  999.0,  999.0,   31.9,   34.8,   35.1,  999.0,   25.6,  999.0,  999.0,   24.4
2018/12/26 06:35,   16.9,   17.0,   16.8,   18.3,   18.5,   17.7,   18.5,   20.5,   20.5,   20.4,   24.1,   26.9,   28.6,   30.0,   29.7,   30.0,   29.1,   28.7,   28.3,   28.0,   29.0,   29.5,   30.1,   31.6,   32.9,   35.5,   38.7,   42.7,   47.6,   49.4,   49.2,   49.7,   50.3,   50.7,   51.1,   48.5,   46.1,   47.6,   49.6,   52.5,   53.0,   53.5,   53.4,   54.7,   56.9,   58.0,   62.7,   63.8,   68.9,   71.2,   73.6,   78.1,  999.0,   74.0,   76.6,  999.0,  999.0,  999.0,   79.4,  999.0,  999.0,  999.0,  999.0,  999.0,  999.0,  999.0,  999.0,  999.0,  999.0,  999.0,  999.0,  999.0,  999.0,   77.5,  999.0,  999.0,   72.9,   78.1,   69.2,   70.7,  999.0,   73.1,   69.8,   76.4,  999.0,  999.0,  999.0,   68.9,   66.9,   71.3,  999.0,  999.0,   61.6,   56.7,   58.4,   54.8,   57.9,   56.5,   46.3,   52.5,   51.9,   46.0,   45.6,   50.4,   38.2,   43.4,   46.8,   43.7,   36.9,   41.2,   36.2,  999.0,   33.9,   36.1,   30.1,  999.0,  999.0,  999.0,  999.0,   28.2
2018/12/26 06:45,   16.3,   15.8,   17.2,   17.4,   17.5,   17.1,   18.2,   19.1,   19.4,   21.3,   24.5,   28.0,   29.3,   29.3,   28.7,   28.9,   28.8,   29.0,   28.9,   28.7,   29.5,   30.1,   31.0,   31.5,   33.4,   34.8,   38.4,   43.2,   47.3,   49.5,   48.8,   48.7,   50.0,   50.3,   50.0,   48.1,   46.6,   47.0,   50.7,   52.5,   51.8,   52.1,   52.8,   53.8,   56.0,   58.9,   61.5,   64.2,   70.7,   71.0,   73.7,   77.3,   75.8,   74.1,   76.3,  999.0,  999.0,  999.0,   79.8,  999.0,  999.0,  999.0,  999.0,  999.0,  999.0,  999.0,  999.0,  999.0,  999.0,  999.0,  999.0,  999.0,  999.0,   77.6,   79.0,   74.5,   71.9,   75.0,   73.4,   76.7,   68.8,   70.9,   73.5,   78.0,  999.0,  999.0,  999.0,  999.0,   65.4,   70.4,   65.7,   67.5,  999.0,   58.2,   55.4,   55.6,   56.9,   55.7,   48.0,   53.1,   47.6,   42.8,   45.0,   46.5,  999.0,   41.4,   44.5,   42.9,   36.7,   40.2,  999.0,  999.0,   32.5,   34.9,  999.0,  999.0,  999.0,  999.0,   23.5,   27.0
2018/12/26 06:55,   17.2,   16.8,   17.5,   16.8,   17.2,   18.0,   18.0,   18.2,   18.9,   21.8,   25.9,   28.0,   28.4,   28.9,   28.8,   29.8,   28.4,   29.1,   30.3,   30.9,   31.0,   31.4,   31.7,   32.1,   32.2,   34.1,   38.3,   42.7,   46.2,   48.3,   48.1,   47.6,   49.9,   50.6,   50.5,   48.9,   46.1,   47.1,   49.9,   52.2,   51.7,   52.6,   53.2,   53.4,   56.6,   61.3,   61.7,   66.7,   72.0,   72.9,   78.3,   77.0,   75.7,   76.4,  999.0,  999.0,  999.0,   77.0,  999.0,  999.0,  999.0,  999.0,  999.0,  999.0,  999.0,  999.0,   79.3,  999.0,  999.0,   72.0,  999.0,  999.0,  999.0,  999.0,   78.7,   77.0,   71.9,   74.8,   76.5,   72.5,   74.3,   75.4,   76.2,  999.0,  999.0,  999.0,  999.0,  999.0,  999.0,   69.4,   73.1,   64.2,  999.0,   56.2,   57.2,   56.2,   58.0,   55.5,   49.3,   52.4,   47.0,   43.1,   47.0,  999.0,  999.0,   40.9,   44.9,  999.0,   37.3,   39.0,   35.3,   32.8,   33.1,   35.2,   30.7,  999.0,   24.3,   25.0,  999.0,  999.0
2018/12/26 07:05,   17.3,   16.7,   17.8,   17.2,   16.5,   17.2,   18.1,   18.1,   18.7,   21.8,   25.8,   27.3,   27.3,   28.3,   29.1,   30.0,   29.0,   29.7,   31.3,   30.7,   30.6,   30.5,   30.9,   30.3,   32.3,   36.7,   40.0,   42.7,   45.3,   47.3,   46.9,   46.2,   47.8,   49.7,   48.8,   48.2,   47.1,   47.1,   49.3,   52.3,   51.8,   53.7,   54.2,   52.8,   56.3,   61.5,   62.1,   68.0,   72.0,   75.7,   78.9,  999.0,  999.0,  999.0,  999.0,  999.0,   74.7,   78.0,  999.0,  999.0,  999.0,  999.0,  999.0,  999.0,  999.0,  999.0,  999.0,  999.0,  999.0,  999.0,  999.0,  999.0,   79.9,  999.0,   78.3,   75.6,   70.7,   75.3,   76.5,   73.9,   75.7,  999.0,  999.0,  999.0,  999.0,  999.0,   72.7,  999.0,  999.0,   69.8,   73.5,  999.0,  999.0,   56.1,  999.0,   51.8,  999.0,   53.6,   48.0,   52.0,   47.6,   42.8,   44.2,   41.6,   37.1,   40.6,   45.8,   41.3,  999.0,  999.0,  999.0,   30.8,   31.9,   34.8,   30.2,  999.0,  999.0,   24.9,  999.0,  999.0
2018/12/26 07:15,   16.5,   16.6,   17.1,   17.1,   16.7,   16.8,   17.6,   18.1,   19.9,   25.2,   27.6,   27.1,   26.4,   28.5,   29.0,   29.3,   29.4,   29.6,   28.8,   29.9,   30.0,   28.5,   29.9,   31.1,   34.6,   37.0,   40.1,   43.8,   46.7,   45.2,   42.4,   43.2,   45.7,   48.1,   50.1,   46.6,   45.9,   47.9,   48.9,   51.3,   53.8,   52.4,   50.1,   53.4,   56.9,   57.9,   62.6,   68.3,   72.0,   75.8,   77.2,   72.3,   77.0,  999.0,  999.0,  999.0,   75.7,   78.7,   79.3,  999.0,  999.0,  999.0,  999.0,  999.0,  999.0,  999.0,  999.0,  999.0,  999.0,   79.7,  999.0,  999.0,  999.0,   77.9,   79.1,   75.4,   73.9,   77.4,   72.3,   78.5,   79.7,  999.0,  999.0,  999.0,  999.0,  999.0,  999.0,  999.0,  999.0,   69.0,   76.1,  999.0,  999.0,  999.0,  999.0,   53.2,   54.1,   46.8,   46.8,   47.3,   48.1,   45.4,   44.5,  999.0,   40.2,   39.2,   44.3,   39.5,   46.3,   36.7,  999.0,   32.4,   32.5,   34.4,  999.0,  999.0,  999.0,  999.0,  999.0,  999.0
2018/12/26 07:25,  999.0,   16.7,   17.2,   17.7,   17.7,   18.0,   17.1,   18.5,   23.7,   26.3,   26.9,   27.5,   27.6,   28.3,   28.2,   29.4,   30.0,   30.7,   31.5,   31.3,   29.8,   29.1,   29.9,   31.3,   35.0,   39.1,   42.4,   45.8,   46.2,   45.3,   42.9,   42.9,   43.8,   46.5,   47.8,   44.5,   46.8,   46.3,   48.1,   51.0,   51.3,   52.2,   52.3,   53.6,   57.5,   60.5,   65.1,   68.9,   73.9,   77.4,  999.0,  999.0,  999.0,  999.0,  999.0,  999.0,  999.0,  999.0,  999.0,  999.0,  999.0,  999.0,  999.0,  999.0,  999.0,  999.0,  999.0,  999.0,  999.0,  999.0,  999.0,  999.0,  999.0,  999.0,   74.9,  999.0,  999.0,   75.4,  999.0,   78.9,  999.0,  999.0,  999.0,  999.0,  999.0,  999.0,  999.0,  999.0,  999.0,  999.0,  999.0,  999.0,  999.0,  999.0,  999.0,  999.0,  999.0,  999.0,  999.0,  999.0,   46.0,   48.0,   45.0,  999.0,  999.0,  999.0,   43.4,  999.0,  999.0,  999.0,  999.0,  999.0,  999.0,   35.7,  999.0,  999.0,  999.0,  999.0,  999.0,  999.0
2018/12/26 07:35,   18.0,  999.0,   16.8,   17.0,   16.5,   17.2,   17.0,   22.5,   25.8,   26.1,   26.6,   26.7,   27.5,   28.6,   28.3,   29.4,   30.2,   31.1,   31.4,   30.6,   29.7,   30.5,   31.9,   33.9,   37.1,   40.0,   43.1,   45.6,   47.6,   47.3,   46.5,   45.3,   44.5,   43.6,   45.0,   45.8,   45.6,   46.0,   48.0,   52.7,   51.0,   52.8,   54.7,   55.0,   59.0,   62.5,   66.3,   72.9,   74.1,   77.0,   77.0,  999.0,  999.0,  999.0,  999.0,  999.0,  999.0,   78.5,   78.7,  999.0,  999.0,  999.0,  999.0,  999.0,  999.0,  999.0,  999.0,  999.0,  999.0,  999.0,  999.0,  999.0,   77.9,   77.6,   76.6,  999.0,  999.0,   73.8,   70.9,   75.1,   74.7,  999.0,  999.0,  999.0,  999.0,  999.0,   70.5,  999.0,  999.0,   65.1,   69.0,   70.1,  999.0,  999.0,   56.8,   61.8,   52.9,   55.1,   51.5,  999.0,   49.6,  999.0,  999.0,  999.0,  999.0,   43.6,  999.0,   39.1,   43.0,  999.0,   35.6,   34.1,   35.2,   30.8,   28.3,  999.0,  999.0,  999.0,  999.0,  999.0
2018/12/26 07:45,   17.5,   17.5,   17.1,   16.8,   16.7,   17.6,   20.7,   23.0,   25.4,   26.1,   27.2,   27.7,   28.1,   28.1,   27.6,   28.0,   28.3,   28.9,   29.0,   28.4,   28.4,   29.8,   31.6,   34.3,   37.2,   39.5,   43.0,   46.2,   46.5,   47.7,   47.5,   46.2,   46.1,   45.8,   45.3,   44.1,   43.6,   45.9,   49.4,   51.3,   50.9,   52.8,   52.6,   54.5,   58.4,   61.0,   66.7,   71.9,   73.2,   78.3,  999.0,   79.0,  999.0,   73.4,   78.4,  999.0,   76.8,   79.7,   78.2,   77.7,  999.0,   80.0,  999.0,  999.0,  999.0,  999.0,  999.0,  999.0,  999.0,  999.0,  999.0,   77.2,   79.9,   79.7,   70.0,   78.7,  999.0,   72.8,   69.4,   73.0,   75.3,  999.0,  999.0,  999.0,  999.0,  999.0,  999.0,  999.0,  999.0,   64.7,   69.5,  999.0,  999.0,  999.0,   56.2,  999.0,   54.2,   56.2,  999.0,  999.0,   46.0,   47.0,   44.1,  999.0,  999.0,   42.4,  999.0,  999.0,  999.0,  999.0,   35.3,   34.9,   36.2,   28.3,   26.1,  999.0,  999.0,  999.0,  999.0,  999.0
2018/12/26 07:55,   17.5,   16.5,   16.6,   16.9,   16.8,   18.3,   21.4,   25.3,   26.1,   26.8,   28.5,   28.2,   27.9,   28.2,   29.1,   28.2,   27.0,   27.5,   27.0,   27.4,   29.4,   30.7,   31.7,   33.3,   37.2,   39.8,   42.3,   44.6,   46.6,   46.8,   47.1,   48.4,   48.3,   47.5,   44.7,   45.0,   44.1,   46.9,   50.4,   50.6,   51.1,   50.7,   51.3,   55.4,   60.3,   61.0,   67.0,   72.2,   76.4,   75.0,   73.6,   78.6,   76.0,   76.1,   76.9,  999.0,   72.4,  999.0,  999.0,  999.0,  999.0,  999.0,  999.0,  999.0,  999.0,  999.0,  999.0,  999.0,  999.0,  999.0,  999.0,  999.0,  999.0,  999.0,  999.0,  999.0,   73.0,   69.5,   69.4,   74.3,  999.0,  999.0,  999.0,  999.0,   75.1,  999.0,  999.0,  999.0,  999.0,   68.7,  999.0,  999.0,  999.0,  999.0,   55.6,  999.0,  999.0,  999.0,   53.4,  999.0,   46.3,   46.8,   45.3,  999.0,  999.0,   42.8,   43.7,  999.0,  999.0,  999.0,   33.6,   36.0,   36.8,   30.3,   27.0,  999.0,  999.0,   18.3,  999.0,   24.9
2018/12/26 08:05,   15.0,   15.9,   17.0,   16.8,   17.7,   19.8,   21.7,   25.4,   26.6,   26.2,   26.5,   28.2,   28.4,   28.4,   29.1,   28.3,   27.2,   27.2,   27.7,   29.3,   31.1,   31.0,   32.4,   35.2,   37.7,   41.1,   44.1,   44.3,   45.4,   46.8,   47.5,   47.6,   47.3,   47.2,   45.3,   45.6,   42.9,   46.3,   49.9,   49.9,   50.1,   51.4,   54.6,   55.2,   59.6,   61.7,   66.5,   72.1,   76.1,   75.9,   70.3,   77.5,   76.1,   74.2,   78.0,  999.0,  999.0,  999.0,  999.0,  999.0,  999.0,  999.0,  999.0,  999.0,  999.0,  999.0,  999.0,  999.0,  999.0,  999.0,  999.0,  999.0,  999.0,  999.0,  999.0,   78.6,   68.1,   69.9,   72.2,   75.4,  999.0,  999.0,  999.0,  999.0,  999.0,  999.0,  999.0,  999.0,   66.1,   68.8,  999.0,  999.0,  999.0,  999.0,   55.9,  999.0,  999.0,  999.0,   50.7,   47.1,   51.2,   46.5,   42.8,   41.3,  999.0,   42.3,   45.4,  999.0,  999.0,  999.0,   33.9,   35.7,   38.1,   29.3,   28.4,   32.2,  999.0,   19.9,   19.1,   21.1
2018/12/26 08:15,   16.4,   17.1,   17.4,   17.1,   18.5,   19.1,   23.5,   25.9,   27.3,   28.0,   26.4,   26.5,   26.8,   27.9,   29.0,   29.5,   29.0,   27.5,   28.7,   29.3,   29.6,   30.2,   32.3,   34.3,   36.7,   40.3,   43.6,   44.1,   45.2,   47.2,   47.9,   46.7,   46.3,   44.2,   45.7,   43.5,   44.0,   46.4,   48.6,   49.6,   50.3,   53.0,   52.3,   55.5,   61.0,   62.6,   66.1,   71.7,   75.1,   74.4,   70.6,   72.9,   76.2,   73.4,   76.9,  999.0,  999.0,  999.0,  999.0,  999.0,  999.0,  999.0,  999.0,  999.0,  999.0,  999.0,  999.0,  999.0,  999.0,  999.0,  999.0,  999.0,   77.1,  999.0,   77.4,   76.3,  999.0,   71.9,   69.9,   76.8,  999.0,  999.0,  999.0,  999.0,  999.0,   78.6,  999.0,  999.0,  999.0,  999.0,  999.0,  999.0,  999.0,   57.9,   58.1,  999.0,  999.0,  999.0,  999.0,  999.0,  999.0,  999.0,  999.0,  999.0,  999.0,  999.0,  999.0,  999.0,  999.0,  999.0,  999.0,  999.0,  999.0,  999.0,   23.4,  999.0,  999.0,  999.0,  999.0,  999.0
2018/12/26 08:25,   17.1,   17.3,   16.9,   17.7,   18.4,   20.3,   23.7,   26.3,   28.2,   28.7,   27.1,   26.3,   26.8,   27.2,   27.8,   28.2,   27.8,   28.2,   28.9,   29.8,   30.1,   30.8,   32.7,   34.2,   37.1,   41.1,   44.4,   45.8,   46.0,   45.9,   47.5,   45.5,   46.5,   45.1,   45.7,   44.5,   43.6,   44.8,   47.8,   49.6,   51.0,   51.2,   52.9,   56.6,   61.7,   62.9,   67.4,   71.5,   75.5,   74.3,  999.0,   73.8,   73.6,   75.2,   79.6,  999.0,  999.0,  999.0,  999.0,  999.0,  999.0,  999.0,  999.0,  999.0,  999.0,  999.0,  999.0,  999.0,  999.0,  999.0,  999.0,  999.0,  999.0,  999.0,  999.0,   78.5,   71.8,   72.0,   71.9,   75.6,  999.0,  999.0,   68.1,  999.0,  999.0,   78.0,  999.0,  999.0,   69.1,   67.9,   69.0,   68.5,  999.0,   62.7,   57.5,   55.9,  999.0,  999.0,  999.0,   50.2,  999.0,   47.3,  999.0,  999.0,   43.7,   46.1,   43.2,   42.9,  999.0,   43.4,   33.8,   35.1,   29.5,   29.6,   25.9,  999.0,  999.0,  999.0,  999.0,  999.0
2018/12/26 08:35,   16.4,   17.1,   17.5,   18.4,   18.6,   21.3,   23.9,   26.2,   27.9,   28.5,   28.1,   27.2,   27.3,   26.3,   26.3,   27.2,   27.7,   28.2,   28.8,   29.7,   31.0,   31.8,   32.9,   35.5,   39.2,   42.3,   45.7,   46.5,   46.4,   46.6,   47.8,   47.3,   47.8,   46.0,   44.5,   44.5,   44.9,   46.1,   49.1,   49.9,   50.6,   52.5,   53.4,   57.6,   60.3,   63.1,   69.6,   72.4,   72.7,   72.0,   78.5,  999.0,   73.2,   75.0,  999.0,  999.0,  999.0,  999.0,  999.0,  999.0,  999.0,  999.0,   78.7,  999.0,  999.0,  999.0,  999.0,  999.0,  999.0,  999.0,  999.0,  999.0,  999.0,  999.0,  999.0,   75.8,   69.2,   72.8,   72.7,   75.6,   79.8,  999.0,  999.0,  999.0,  999.0,  999.0,  999.0,  999.0,  999.0,   70.3,  999.0,   65.9,   55.9,   61.5,  999.0,   55.9,   57.6,   54.7,   50.1,   53.0,   57.0,   48.4,  999.0,  999.0,  999.0,   40.9,   42.0,  999.0,  999.0,  999.0,  999.0,   35.5,   30.3,   31.8,   27.8,   26.1,  999.0,  999.0,  999.0,   18.3
2018/12/26 08:45,   16.4,   16.4,   17.5,   17.5,   19.4,   22.6,   24.2,   26.5,   28.2,   29.4,   28.9,   28.5,   29.1,   27.0,   27.3,   26.8,   28.1,   28.1,   28.6,   30.3,   30.7,   30.7,   31.6,   34.6,   36.8,   40.5,   43.4,   46.0,   46.8,   46.1,   47.9,   48.7,   49.2,   45.7,   46.9,   44.6,   45.6,   47.1,   48.7,   50.1,   54.1,   51.9,   54.0,   57.8,   60.2,   63.6,   70.9,   72.5,   69.1,   70.7,   76.2,  999.0,   73.1,   75.9,  999.0,  999.0,  999.0,  999.0,  999.0,  999.0,  999.0,  999.0,  999.0,  999.0,  999.0,  999.0,  999.0,  999.0,  999.0,  999.0,  999.0,  999.0,  999.0,  999.0,  999.0,  999.0,  999.0,   70.0,   70.2,   74.7,  999.0,  999.0,  999.0,  999.0,  999.0,  999.0,   73.0,  999.0,  999.0,   67.3,   71.1,  999.0,   53.4,   57.8,  999.0,  999.0,   54.8,  999.0,  999.0,   49.1,   53.5,   46.3,   46.7,  999.0,  999.0,   46.5,   41.6,   47.0,  999.0,  999.0,   35.8,   36.0,   30.1,   27.8,  999.0,  999.0,  999.0,  999.0,  999.0,   20.5
2018/12/26 08:55,   17.4,   17.1,   17.1,   17.0,   17.7,   22.2,   22.8,   26.4,   27.6,   27.5,   27.5,   27.5,   27.7,   26.8,   27.6,   26.7,   27.1,   28.5,   28.6,   29.8,   29.8,   31.1,   32.2,   33.5,   36.4,   39.8,   42.7,   45.2,   46.2,   47.3,   48.8,   49.1,   50.2,   48.2,   46.6,   45.4,   45.6,   46.9,   50.1,   50.1,   53.8,   56.5,   56.3,   60.6,   61.5,   65.9,   71.0,   66.2,   68.6,   71.8,   72.6,   72.6,   71.9,   77.0,  999.0,  999.0,  999.0,  999.0,  999.0,  999.0,  999.0,  999.0,  999.0,  999.0,  999.0,  999.0,  999.0,  999.0,  999.0,  999.0,  999.0,  999.0,  999.0,  999.0,  999.0,  999.0,  999.0,   71.8,   75.1,   71.5,  999.0,   75.1,  999.0,  999.0,  999.0,  999.0,   73.2,  999.0,  999.0,   63.9,  999.0,   64.4,  999.0,  999.0,  999.0,  999.0,   58.9,  999.0,  999.0,  999.0,   48.3,   48.0,   40.1,  999.0,  999.0,  999.0,   41.1,   44.5,  999.0,   36.8,   34.3,   35.1,   31.5,   21.5,   23.9,  999.0,   19.4,   19.8,   16.4,   20.3
2018/12/26 09:05,   17.8,   16.8,   17.2,   15.7,   18.4,   23.0,   24.7,   24.8,   26.5,   26.5,   26.5,   26.3,   27.2,   29.0,   28.5,   29.6,   27.6,   29.1,   28.6,   31.7,   31.0,   31.8,   33.1,   34.5,   36.1,   38.7,   42.7,   44.3,   46.3,   47.9,   47.9,   48.5,   50.1,   47.9,   47.4,   45.6,   46.1,   47.2,   48.7,   51.3,   54.5,   54.3,   57.1,   61.6,   61.3,   65.6,   70.7,   70.1,   71.4,   70.7,   71.3,  999.0,  999.0,   76.6,  999.0,  999.0,   79.3,  999.0,  999.0,  999.0,  999.0,  999.0,  999.0,  999.0,  999.0,  999.0,  999.0,  999.0,  999.0,  999.0,  999.0,  999.0,  999.0,  999.0,  999.0,  999.0,  999.0,  999.0,   74.6,  999.0,  999.0,  999.0,  999.0,  999.0,  999.0,  999.0,  999.0,  999.0,  999.0,  999.0,  999.0,  999.0,  999.0,  999.0,  999.0,  999.0,  999.0,  999.0,  999.0,  999.0,  999.0,   46.7,  999.0,   48.7,  999.0,  999.0,  999.0,   48.1,  999.0,  999.0,  999.0,  999.0,  999.0,  999.0,  999.0,  999.0,  999.0,  999.0,  999.0,  999.0
